STARLINK-1477, 45754

Orbit data source: Space-Track

STARLINK-1477, 45754 is a payload satellite owned by SpaceX/Seattle (US) in LEO that was launched on Sat, 13 Jun 2020 UTC via an FALCON 9 launch vehicle from the Air Force Eastern Test Range (AFETR). Payloads include a variety of satellites, spacecraft, and rockets equipped with specific instruments for various scientific and technological missions. These include communications satellites like Starlink; space stations such as the ISS; scientific satellites like the Hubble; Earth observation satellites from companies like Planet Labs, Umbra, and HawkEye 360; GPS; miniature CubeSats for education and research; and military/defense satellites.

Loading next visibility...
STARLINK-1477 details
Identifier
45754, 2020-038AA
Orbit
LEO
Last TLE update13 hours ago
Origin
Flag of USSpaceX/Seattle (US)
ManufacturerSpaceX/Seattle
MissionOperational Commercial Communications
Bus & MotorSTARLINK, Unknown motor
Mass260 kg wet, ~248 kg dry
Launch date (UTC)
2020-06-13 (4 years ago)
Launch vehicle
FALCON 9
Launch site
Air Force Eastern Test Range (AFETR)
Object type
Payload
Rocket body
Debris
Shape & HBRBox + 1 Pan, 8.86 m
Radar Cross Section13.562 m², Large (>1 m²)

Expand to show TLE details & history

TLE from 13 hours ago
0 STARLINK-1477
1 45754U 20038AA  24339.59743928  .00005219  00000-0  36892-3 0  9994
2 45754  53.0546 122.0503 0001443  81.4043 278.7109 15.06409427247134
Epoch: 2024-12-04T14:20Z
Definitive object data (Epoch: 2024-12-04T14:20:18.753Z)
Latitude-0.00007°
Longitude-166.9182°
Altitude547.911 km
Speed7.589 km/s
True Right ascension08h 08m 12s
True Declination0° 00' 00"
Sunlit
Object was in full shadow at TLE epoch
Visualization TLE readout
Latitude5.21389°
Longitude-165.39342°
Altitude547.283 km
Speed7.59 km/s
Apparent Right ascension10h 10m 41s
Apparent Declination-19° 44' 55"
Sunlit
Object is in full shadow
Visualization observer readout
Local Sidereal Time01:03:31
Azimuth74.309° E
Elevation-47.984°
Doppler factor1
Orbital elements
Apogee altitude548.453 km
Perigee altitude546.454 km
Semi-major axis6,925.59 km
Eccentricity0.0001443
Inclination53.0546°
RAAN122.0503°
Arg. of periapsis81.4043°
True anomaly278.69455°
Mean anomaly278.7109°
Eccentric anomaly278.70273°
Mean motion3.76581 °/min
BSTAR0.00036892
Orbital period95.6 mins
Loading maneuver chart data...
Loading historical data...
Loading historical data...
Loading historical data...
Loading historical data...
Loading historical data...
Loading historical data...
Loading historical data...

STARLINK-1477 Visibility forecast

Observer location: undefined°, undefined

Span
Click to sort rows by Start time (UTC) header in descending order
Start Az.
Max El. time (UTC)
Max El. Az.
Max El.
End time (UTC)
End Az.
5 mins2024-12-05 11:11:20.517Z169.158° S2024-12-05 11:13:20.517Z136.783° SSE18.39°2024-12-05 11:16:20.517Z85.162° E
6 mins2024-12-05 12:50:20.517Z249.933° W2024-12-05 12:53:20.517Z349.095° N39.218°2024-12-05 12:56:20.517Z41.543° NE
5 mins2024-12-05 17:52:20.517Z338.131° N2024-12-05 17:54:20.517Z16.202° NNE23.996°2024-12-05 17:57:20.517Z77.249° E
6 mins2024-12-05 19:32:20.517Z293.214° NW2024-12-05 19:34:20.517Z232.936° WSW39.764°2024-12-05 19:38:20.517Z146.291° SSE
|